GW0557 Weather Reports


Display with metric or nautical units.
time (UTC)temp
F
wind
direction
speed
MPH
gust
MPH
rain 1hr
in
rain 24hr
in
rain mn
in
humidity
%
barometer
mb
20260503190059 57 196 3.0 9.0 0.00 0.01 0.01 59 1014.6
20260503184556 57 188 5.0 11.0 0.00 0.01 0.01 55 1014.5
20260503183106 58 196 5.0 9.0 0.00 0.01 0.01 56 1014.3
20260503181552 56 207 6.0 9.0 0.00 0.01 0.01 59 1014.8
20260503180107 56 194 4.0 9.0 0.00 0.01 0.01 60 1015.4
20260503174554 56 234 4.0 8.0 0.00 0.01 0.01 58 1015.7
20260503173149 56 228 5.0 12.0 0.00 0.01 0.01 57 1016.0
20260503171555 57 190 5.0 10.0 0.00 0.01 0.01 57 1016.1
20260503130104 47 212 4.0 9.0 0.00 0.01 0.01 66 1017.6
20260503100111 39 173 2.0 4.0 0.00 0.01 0.01 75 1017.0
20260503090106 39 193 2.0 5.0 0.01 0.01 0.01 73 1017.0
20260503081600 39 194 2.0 3.0 0.00 0.00 0.00 73 1017.2
20260503071552 40 200 1.0 3.0 0.00 0.00 0.00 73 1017.2
20260503054550 40 0 0.0 0.0 0.00 0.00 0.00 72 1017.8
20260503053053 40 0 0.0 0.0 0.00 0.00 0.00 73 1017.9
20260503051551 40 0 0.0 0.0 0.00 0.00 0.00 73 1018.0
20260503050058 40 0 0.0 0.0 0.00 0.00 0.00 73 1018.0
20260503044556 40 0 0.0 0.0 0.00 0.00 0.00 73 1018.0
20260503043051 40 0 0.0 0.0 0.00 0.00 0.00 74 1018.0
20260503041553 40 0 0.0 1.0 0.00 0.00 0.00 74 1018.1
20260503040054 40 0 0.0 0.0 0.00 0.00 0.00 74 1018.0
20260503034550 40 0 0.0 0.0 0.00 0.00 0.00 73 1018.1
20260503033051 40 0 0.0 0.0 0.00 0.00 0.00 72 1018.2
20260503031557 41 0 0.0 0.0 0.00 0.00 0.00 71 1018.1
20260503030051 42 0 0.0 0.0 0.00 0.00 0.00 71 1018.2
20260503024552 42 0 0.0 0.0 0.00 0.00 0.00 69 1018.1
20260503023056 42 0 0.0 0.0 0.00 0.00 0.00 64 1018.1
20260503021552 43 0 0.0 1.0 0.00 0.00 0.00 64 1018.0
20260503020059 44 0 0.0 1.0 0.00 0.00 0.00 65 1018.0
20260503014558 44 0 0.0 0.0 0.00 0.00 0.00 55 1017.9
20260503013050 44 0 0.0 0.0 0.00 0.00 0.00 57 1017.8
20260503011604 45 0 0.0 1.0 0.00 0.00 0.00 59 1017.7
20260503010053 46 0 0.0 0.0 0.00 0.00 0.00 54 1017.6
20260503004549 47 0 0.0 1.0 0.00 0.00 0.00 54 1017.6
20260503003105 48 0 0.0 1.0 0.00 0.00 0.00 52 1017.5
20260503001552 49 0 0.0 2.0 0.00 0.00 0.00 47 1017.5
20260503000109 49 319 1.0 4.0 0.00 0.00 0.00 46 1017.5
20260502234551 49 0 0.0 4.0 0.00 0.00 0.00 51 1017.4
20260502233053 49 319 1.0 4.0 0.00 0.00 0.00 47 1017.4
20260502231616 49 316 2.0 4.0 0.00 0.00 0.00 44 1017.5
20260502230058 49 321 1.0 3.0 0.00 0.00 0.00 44 1017.5
20260502224600 49 315 1.0 4.0 0.00 0.00 0.00 45 1017.6
20260502223055 50 313 3.0 8.0 0.00 0.00 0.00 47 1017.6
20260502221556 50 333 2.0 5.0 0.00 0.00 0.00 45 1017.6
20260502220058 50 339 1.0 4.0 0.00 0.00 0.00 44 1017.5
20260502214556 50 325 3.0 8.0 0.00 0.00 0.00 45 1017.5
20260502213053 50 42 2.0 8.0 0.00 0.00 0.00 52 1017.4
20260502211554 50 312 1.0 5.0 0.00 0.00 0.00 49 1017.4
20260502210052 50 319 3.0 7.0 0.00 0.00 0.00 46 1017.5
20260502204552 50 13 2.0 9.0 0.00 0.00 0.00 47 1017.6
20260502203052 50 317 2.0 8.0 0.00 0.00 0.00 48 1017.6
20260502201551 49 317 1.0 7.0 0.00 0.00 0.00 48 1017.7
20260502200049 49 296 4.0 7.0 0.00 0.00 0.00 46 1017.7
20260502194558 50 309 2.0 6.0 0.00 0.01 0.00 50 1018.0
20260502193104 49 317 3.0 8.0 0.00 0.01 0.00 46 1017.9
20260502191600 49 312 2.0 9.0 0.00 0.01 0.00 47 1018.1